Location: Byszew
(52.1813°N, 19.2693°E)
Time: 21:29:04
(UTC+00:00)

COSMO-SKYMED 1 - Pass Details

Date: 03 March 2021
Orbit: 621 x 623 km, 97.9° (Epoch: 16 April)

Event Time Altitude Azimuth Distance (km) Brightness Sun altitude
Rises 17:42:00 0° 9° (N) 2,920 6.0 -12.4°
Reaches altitude 10° 17:44:17 10° 2° (N) 2,008 5.2 -12.7°
Maximum altitude 17:48:23 41° 293° (WNW) 919 4.0 -13.4°
Drops below altitude 10° 17:52:26 10° 224° (SW) 1,993 5.7 -14.0°
Sets 17:54:42 0° 217° (SW) 2,894 6.4 -14.3°
